"2009-07-28 00:00:00",1100449,2.594,42.07,2.098,0.07,17.53,107.3599,18.12,19.29,49.64,0,110.8,13.25,18.93,4.1
"2009-07-28 00:00:30",1100450,2.687,39.94,2.139,0.085,17.72,107.3599,18.12,19.27,49.62,0,110.8,13.25,18.93,1.9
"2009-07-28 00:01:00",1100451,2.683,40.67,2.712,0.136,17.79,107.3571,18.11,19.25,49.71,0,110.8,13.25,18.93,2.7
"2009-07-28 00:01:30",1100452,1.959,26.69,3.255,0.216,17.67,107.3512,18.1,19.21,49.85,0,110.8,13.25,18.91,348.7
"2009-07-28 00:02:00",1100453,2.038,24.96,4.829,0.276,17.7,107.3419,18.07,19.22,49.89,0,110.8,13.25,18.89,347.0
"2009-07-28 00:02:30",1100454,2.6,20.84,2.715,0.195,17.76,107.3304,18.04,19.21,49.99,0,110.8,13.25,18.86,342.8
"2009-07-28 00:03:00",1100455,2.374,10.8,6.925,0.347,17.67,107.327,18.03,19.2,50.19,0,110.8,13.25,18.85,332.8
"2009-07-28 00:03:30",1100456,2.729,2.815,3.077,0.22,17.6,107.3273,18.03,19.17,50.9,0,110.8,13.25,18.85,324.8
"2009-07-28 00:04:00",1100457,3.036,2.415,1.763,0.203,17.64,107.3273,18.03,19.17,50.96,0,110.8,13.25,18.85,324.4
"2009-07-28 00:04:30",1100458,3.178,4.061,2.651,0.215,17.58,107.3267,18.03,19.15,50.82,0,110.8,13.25,18.85,326.1
"2009-07-28 00:05:00",1100459,2.966,3.826,2.041,0.25,17.69,107.3279,18.04,19.15,50.67,0,110.8,13.26,18.85,325.8
"2009-07-28 00:05:30",1100460,2.891,9.96,1.752,0.208,17.76,107.331,18.04,19.14,50.1,0,110.8,13.26,18.86,332.0
"2009-07-28 00:06:00",1100461,2.357,16.49,3.317,0.155,17.72,107.331,18.04,19.13,49.99,0,110.8,13.26,18.86,338.5
"2009-07-28 00:06:30",1100462,2.342,23.32,2.337,0.179,17.82,107.334,18.05,19.13,50.03,0,110.8,13.26,18.87,345.3
"2009-07-28 00:07:00",1100463,2.467,24.64,1.588,0.172,17.72,107.3334,18.05,19.12,50.06,0,110.8,13.26,18.87,346.6
"2009-07-28 00:07:30",1100464,2.763,23.46,1.131,0.127,17.62,107.3337,18.05,19.14,49.88,0,110.8,13.26,18.87,345.5
"2009-07-28 00:08:00",1100465,2.589,24.85,1.433,0.142,17.57,107.3355,18.06,19.11,49.6,0,110.8,13.26,18.87,346.9
"2009-07-28 00:08:30",1100466,2.371,29.39,2.617,0.139,17.57,107.3376,18.06,19.13,49.46,0,110.8,13.26,18.88,351.4
"2009-07-28 00:09:00",1100467,2.551,30.69,1.81,0.16,17.53,107.3343,18.05,19.13,49.49,0,110.8,13.26,18.87,352.7
"2009-07-28 00:09:30",1100468,2.633,28.85,2.473,0.113,17.48,107.337,18.06,19.13,49.51,0,110.8,13.26,18.87,350.9
"2009-07-28 00:10:00",1100469,2.565,26.01,1.439,0.139,17.48,107.3408,18.07,19.13,49.76,0,110.8,13.26,18.88,348.0
"2009-07-28 00:10:30",1100470,2.349,25.75,1.857,0.179,17.47,107.3454,18.08,19.13,49.8,0,110.8,13.26,18.90,347.8
"2009-07-28 00:11:00",1100471,2.124,31.64,2.815,0.239,17.43,107.3524,18.1,19.14,49.96,0,110.8,13.26,18.91,353.6
"2009-07-28 00:11:30",1100472,2.33,35.47,1.447,0.126,17.45,107.3552,18.11,19.13,50.52,0,110.8,13.26,18.92,357.5
"2009-07-28 00:12:00",1100473,2.478,40.81,2.25,0.089,17.32,107.3581,18.11,19.15,50.49,0,110.8,13.26,18.93,2.8
"2009-07-28 00:12:30",1100474,2.309,44.25,1.424,0.05,17.36,107.3631,18.13,19.15,50.92,0,110.8,13.26,18.94,6.2
"2009-07-28 00:13:00",1100475,2.189,48.92,1.321,0.078,17.35,107.3642,18.13,19.15,51.08,0,110.8,13.26,18.94,10.9
"2009-07-28 00:13:30",1100476,2.002,53.33,1.198,0.054,17.33,107.3604,18.12,19.15,51.17,0,110.8,13.26,18.93,15.3
"2009-07-28 00:14:00",1100477,1.891,56.73,1.258,0.059,17.47,107.3614,18.12,19.15,51.3,0,110.8,13.26,18.94,18.7
"2009-07-28 00:14:30",1100478,1.932,55.59,0.643,0.042,17.46,107.3575,18.11,19.14,51.31,0,110.8,13.26,18.93,17.6
"2009-07-28 00:15:00",1100479,1.789,52.77,1.429,0.098,17.63,107.3562,18.11,19.14,51.13,0,110.8,13.26,18.92,14.8
"2009-07-28 00:15:30",1100480,1.513,52.16,1.842,0.1,17.7,107.3581,18.11,19.14,50.54,0,110.8,13.26,18.93,14.2
"2009-07-28 00:16:00",1100481,1.244,50.83,3.222,0.054,17.44,107.3566,18.11,19.13,50.37,0,110.8,13.26,18.92,12.8
"2009-07-28 00:16:30",1100482,0.965,48.69,1.8,0.122,17.64,107.3569,18.11,19.14,50.27,0,110.8,13.26,18.93,10.7
"2009-07-28 00:17:00",1100483,0.757,50.4,2.198,0.047,17.84,107.36,18.12,19.14,50.3,0,110.8,13.26,18.93,12.4
"2009-07-28 00:17:30",1100484,0.695,53.27,3.77,0.113,17.85,107.3615,18.12,19.13,50.3,0,110.8,13.26,18.94,15.3
"2009-07-28 00:18:00",1100485,0.467,46.83,12.53,0.151,17.83,107.3606,18.12,19.14,50.38,0,110.8,13.26,18.93,8.8
"2009-07-28 00:18:30",1100486,0.43,84.1,30.81,0.137,17.86,107.3618,18.12,19.13,50.48,0,110.8,13.26,18.94,46.1
"2009-07-28 00:19:00",1100487,0.375,98.4,17.76,0.131,17.89,107.3621,18.12,19.14,50.59,0,110.8,13.26,18.94,60.4
"2009-07-28 00:19:30",1100488,0.258,125.4,7.284,0.055,17.91,107.3618,18.12,19.13,50.55,0,110.8,13.26,18.94,87.4
"2009-07-28 00:20:00",1100489,0.539,135,6.409,0.165,17.88,107.3612,18.12,19.14,50.64,0,110.7,13.26,18.94,97.0
"2009-07-28 00:20:30",1100490,1.068,144,7.357,0.159,17.78,107.3621,18.12,19.13,50.96,0,110.8,13.26,18.94,106.0
"2009-07-28 00:21:00",1100491,1.325,152.2,8.29,0.125,17.84,107.3624,18.12,19.14,51.18,0,110.8,13.26,18.94,114.2
"2009-07-28 00:21:30",1100492,1.404,146.8,6.417,0.174,17.83,107.3624,18.12,19.14,51.22,0,110.8,13.26,18.94,108.8
"2009-07-28 00:22:00",1100493,1.598,150.9,3.528,0.112,17.79,107.3624,18.12,19.14,51.2,0,110.7,13.26,18.94,112.9
"2009-07-28 00:22:30",1100494,1.631,158.5,2.398,0.111,17.78,107.3624,18.12,19.14,51.17,0,110.7,13.26,18.94,120.5
"2009-07-28 00:23:00",1100495,1.798,146.5,4.819,0.193,17.92,107.3624,18.12,19.12,51.01,0,110.7,13.26,18.94,108.5
"2009-07-28 00:23:30",1100496,1.821,141.2,3.364,0.069,17.76,107.3624,18.12,19.14,51.03,0,110.8,13.26,18.94,103.2
"2009-07-28 00:24:00",1100497,1.664,137.5,1.462,0.102,17.86,107.3624,18.12,19.15,51.17,0,110.8,13.26,18.94,99.5
"2009-07-28 00:24:30",1100498,1.503,131.4,3.548,0.075,17.85,107.3624,18.12,19.15,51.14,0,110.7,13.27,18.94,93.4
"2009-07-28 00:25:00",1100499,1.661,122.5,5.075,0.138,18.15,107.3624,18.12,19.14,50.7,0,110.7,13.27,18.94,84.5
"2009-07-28 00:25:30",1100500,2.061,105.4,5.122,0.129,18.31,107.3624,18.12,19.15,50.15,0,110.7,13.27,18.94,67.4
"2009-07-28 00:26:00",1100501,2.573,98.1,3.673,0.244,18.47,107.3624,18.12,19.13,49.52,0,110.7,13.27,18.94,60.1
"2009-07-28 00:26:30",1100502,3,90,2.508,0.09,18.51,107.3624,18.12,19.13,48.85,0,110.7,13.27,18.94,52.0
"2009-07-28 00:27:00",1100503,2.979,81.6,3.732,0.085,18.61,107.3624,18.12,19.13,48.6,0,110.7,13.27,18.94,43.6
"2009-07-28 00:27:30",1100504,3.106,79.02,2.257,0.104,18.72,107.3624,18.12,19.15,48.38,0,110.7,13.27,18.94,41.0
"2009-07-28 00:28:00",1100505,2.954,78.71,3.103,0.109,18.53,107.3624,18.12,19.15,48.34,0,110.7,13.27,18.94,40.7
"2009-07-28 00:28:30",1100506,3.062,74.08,2.471,0.132,18.55,107.3632,18.13,19.15,48.37,0,110.7,13.27,18.94,36.1
"2009-07-28 00:29:00",1100507,3.151,76.48,0.826,0.082,18.7,107.3745,18.16,19.15,48.24,0,110.7,13.27,18.97,38.5
"2009-07-28 00:29:30",1100508,2.693,76.79,2.486,0.267,18.67,107.3835,18.18,19.17,48,0,110.7,13.27,18.99,38.8
"2009-07-28 00:30:00",1100509,2.258,82.2,3.552,0.097,18.35,107.3877,18.19,19.16,47.85,0,110.7,13.27,19.00,44.2
"2009-07-28 00:30:30",1100510,1.938,94.8,6.172,0.239,18.19,107.3956,18.21,19.18,48,0,110.7,13.27,19.03,56.8
"2009-07-28 00:31:00",1100511,1.037,118.5,6.381,0.259,17.85,107.3961,18.21,19.18,48.76,0,110.7,13.27,19.03,80.5
"2009-07-28 00:31:30",1100512,0.828,151.6,12.76,0.069,17.9,107.3961,18.21,19.21,49.35,0,110.7,13.27,19.03,113.6
"2009-07-28 00:32:00",1100513,0.611,183.8,14.88,0.108,17.9,107.3961,18.21,19.21,49.46,0,110.7,13.27,19.03,145.8
"2009-07-28 00:32:30",1100514,0.664,201.5,7.885,0.099,18.01,107.3967,18.21,19.21,49.73,0,110.7,13.27,19.03,163.5
"2009-07-28 00:33:00",1100515,0.922,199,7.113,0.05,17.71,107.3998,18.22,19.22,50.31,0,110.7,13.27,19.04,161.0
"2009-07-28 00:33:30",1100516,1.014,201.4,5.176,0.074,17.77,107.4097,18.25,19.25,50.3,0,110.7,13.26,19.06,163.4
"2009-07-28 00:34:00",1100517,1.113,196.7,6.718,0.068,17.89,107.4178,18.27,19.24,50.21,0,110.7,13.26,19.08,158.7
"2009-07-28 00:34:30",1100518,1.331,185.6,2.22,0.058,18.2,107.4282,18.29,19.26,49.98,0,110.7,13.26,19.11,147.6
"2009-07-28 00:35:00",1100519,1.242,180.9,2.66,0.091,18.18,107.4296,18.3,19.27,49.76,0,110.7,13.26,19.11,142.9
"2009-07-28 00:35:30",1100520,1.158,171.8,2.738,0.066,18.02,107.4299,18.3,19.28,49.78,0,110.7,13.26,19.11,133.8
"2009-07-28 00:36:00",1100521,1.053,154.8,4.756,0.072,18.05,107.4299,18.3,19.29,49.84,0,110.7,13.26,19.11,116.8
"2009-07-28 00:36:30",1100522,1.14,140.5,4.53,0.134,18.26,107.4299,18.3,19.29,49.74,0,110.7,13.26,19.11,102.5
"2009-07-28 00:37:00",1100523,1.443,127.3,4.543,0.113,18.28,107.4299,18.3,19.31,49.35,0,110.7,13.26,19.11,89.3
"2009-07-28 00:37:30",1100524,1.713,121,3.593,0.115,18.26,107.4299,18.3,19.31,48.95,0,110.7,13.26,19.11,83.0
"2009-07-28 00:38:00",1100525,1.87,115.3,5.172,0.102,18.24,107.4299,18.3,19.31,48.88,0,110.7,13.26,19.11,77.3
"2009-07-28 00:38:30",1100526,1.8,118.7,6.738,0.085,18.18,107.4299,18.3,19.33,48.66,0,110.7,13.26,19.11,80.7
"2009-07-28 00:39:00",1100527,1.777,132.6,4.842,0.185,17.89,107.4299,18.3,19.33,48.96,0,110.7,13.26,19.11,94.6
"2009-07-28 00:39:30",1100528,2.132,147.6,3.893,0.091,17.52,107.4302,18.3,19.34,49.71,0,110.7,13.27,19.11,109.6
"2009-07-28 00:40:00",1100529,2.101,152.5,3.009,0.09,17.64,107.4313,18.3,19.35,50.32,0,110.7,13.27,19.12,114.5
"2009-07-28 00:40:30",1100530,1.613,154.5,5.12,0.156,17.76,107.4319,18.3,19.35,50.58,0,110.7,13.27,19.12,116.5
"2009-07-28 00:41:00",1100531,1.641,176.3,3.462,0.243,17.81,107.4336,18.31,19.38,50.53,0,110.7,13.27,19.12,138.3
"2009-07-28 00:41:30",1100532,2.232,170,4.532,0.195,18.23,107.4336,18.31,19.37,50.52,0,110.7,13.27,19.12,132.0
"2009-07-28 00:42:00",1100533,1.9,153.4,6.069,0.149,18.31,107.4319,18.3,19.36,49.6,0,110.7,13.27,19.12,115.4
"2009-07-28 00:42:30",1100534,2.184,144.3,3.241,0.127,18.54,107.4308,18.3,19.36,49.3,0,110.7,13.27,19.12,106.3
"2009-07-28 00:43:00",1100535,2.442,138.5,1.711,0.071,18.64,107.4311,18.3,19.36,48.92,0,110.7,13.27,19.12,100.5
"2009-07-28 00:43:30",1100536,2.391,149.3,3.88,0.06,18.23,107.4308,18.3,19.35,49,0,110.7,13.27,19.12,111.3
"2009-07-28 00:44:00",1100537,2.603,150.9,1.636,0.132,18.69,107.4305,18.3,19.36,49.63,0,110.7,13.27,19.11,112.9
"2009-07-28 00:44:30",1100538,2.666,150.3,1.688,0.073,18.5,107.4329,18.31,19.36,49.85,0,110.7,13.27,19.12,112.3
"2009-07-28 00:45:00",1100539,2.731,148.2,2.221,0.099,18.71,107.4323,18.3,19.36,50.12,0,110.7,13.27,19.12,110.2
"2009-07-28 00:45:30",1100540,3.073,143.3,2.706,0.098,13.47,107.4372,18.32,19.37,50.47,0,110.7,13.27,19.13,105.3
"2009-07-28 00:46:00",1100541,3.084,135,1.15,0.06,18.55,107.4354,18.31,19.36,50.58,0,110.7,13.27,19.13,97.0
"2009-07-28 00:46:30",1100542,3.193,132.4,1.301,0.133,18.34,107.4378,18.32,19.34,50.47,0,110.7,13.27,19.13,94.4
"2009-07-28 00:47:00",1100543,3.411,128.7,1.993,0.142,18.44,107.4386,18.32,19.34,50.61,0,110.7,13.27,19.14,90.7
"2009-07-28 00:47:30",1100544,3.627,124,1.603,0.084,18.6,107.4271,18.29,19.34,50.28,0,110.7,13.27,19.11,86.0
"2009-07-28 00:48:00",1100545,3.944,120.8,1.387,0.103,18.55,107.4169,18.26,19.33,50.04,0,110.7,13.27,19.08,82.8
"2009-07-28 00:48:30",1100546,4.279,115.9,2.258,0.123,18.68,107.4173,18.27,19.33,49.5,0,110.7,13.27,19.08,77.9
"2009-07-28 00:49:00",1100547,4.334,109.8,1.646,0.049,18.61,107.4194,18.27,19.3,48.68,0,110.7,13.27,19.09,71.8
"2009-07-28 00:49:30",1100548,4.576,104.9,1.42,0.057,18.94,107.4215,18.28,19.3,48.38,0,110.7,13.27,19.09,66.9
"2009-07-28 00:50:00",1100549,4.696,103.7,0.847,0.104,18.44,107.4222,18.28,19.28,48.18,0,110.7,13.27,19.09,65.7
"2009-07-28 00:50:30",1100550,4.887,101.5,0.744,0.059,18.25,107.4163,18.26,19.28,47.93,0,110.7,13.27,19.08,63.5
"2009-07-28 00:51:00",1100551,4.947,99.8,0.715,0.05,18.5,107.4146,18.26,19.27,47.77,0,110.7,13.27,19.07,61.8
"2009-07-28 00:51:30",1100552,5.095,98.7,0.532,0.051,18.6,107.413,18.25,19.25,47.53,0,110.7,13.27,19.07,60.7
"2009-07-28 00:52:00",1100553,5.261,96,1.629,0.14,18.35,107.4101,18.25,19.24,47.45,0,110.7,13.27,19.06,58.0
"2009-07-28 00:52:30",1100554,5.464,92.8,0.928,0.095,18.69,107.3982,18.22,19.24,47.85,0,110.7,13.27,19.03,54.8
"2009-07-28 00:53:00",1100555,5.481,89.1,1.148,0.112,18.63,107.3956,18.21,19.24,46.79,0,110.7,13.27,19.03,51.1
"2009-07-28 00:53:30",1100556,5.186,89.7,0.985,0.067,18.29,107.3977,18.21,19.25,46.73,0,110.7,13.27,19.03,51.7
"2009-07-28 00:54:00",1100557,5.291,86,2.182,0.157,18.4,107.3983,18.22,19.23,46.65,0,110.7,13.27,19.03,48.0
"2009-07-28 00:54:30",1100558,4.781,84.7,2.167,0.187,18.32,107.3987,18.22,19.22,46.63,0,110.7,13.27,19.03,46.7
"2009-07-28 00:55:00",1100559,4.801,83.5,2.162,0.192,18.08,107.3987,18.22,19.21,48.07,0,110.7,13.27,19.03,45.5
"2009-07-28 00:55:30",1100560,4.61,80.4,3.521,0.16,17.89,107.3987,18.22,19.22,49.98,0,110.7,13.27,19.03,42.4
"2009-07-28 00:56:00",1100561,4.422,79.24,1.481,0.102,17.79,107.3987,18.22,19.22,51.14,0,110.7,13.27,19.03,41.2
"2009-07-28 00:56:30",1100562,4.203,76.59,1.377,0.115,17.76,107.3987,18.22,19.22,51.43,0,110.7,13.27,19.03,38.6
"2009-07-28 00:57:00",1100563,3.952,77.5,1.312,0.082,17.83,107.3987,18.22,19.22,51.44,0,110.7,13.28,19.03,39.5
"2009-07-28 00:57:30",1100564,3.548,75.67,2.716,0.231,17.84,107.3972,18.21,19.21,51.74,0,110.7,13.28,19.03,37.7
"2009-07-28 00:58:00",1100565,3.556,75.49,1.847,0.1,17.73,107.3879,18.19,19.2,52.01,0,110.7,13.28,19.01,37.5
"2009-07-28 00:58:30",1100566,3.203,78.02,3.235,0.11,18,107.3713,18.15,19.19,52.32,0,110.7,13.28,18.96,40.0
"2009-07-28 00:59:00",1100567,3.161,79.93,1.719,0.172,18.15,107.3649,18.13,19.18,51.04,0,110.7,13.28,18.95,41.9
"2009-07-28 00:59:30",1100568,2.915,75.02,4.198,0.216,18.21,107.3649,18.13,19.18,50.36,0,110.7,13.28,18.95,37.0
"2009-07-28 01:00:00",1100569,3.053,68.53,3.245,0.281,18.36,107.3649,18.13,19.15,49.1,0,110.7,13.28,18.95,30.5
"2009-07-28 01:00:30",1100570,2.264,68.15,3.896,0.179,18.1,107.3649,18.13,19.16,49.44,0,110.7,13.28,18.95,30.2
"2009-07-28 01:01:00",1100571,2.052,59.47,1.784,0.129,17.92,107.3649,18.13,19.15,51.24,0,110.7,13.28,18.95,21.5
"2009-07-28 01:01:30",1100572,2.198,53.89,3.316,0.189,17.72,107.3649,18.13,19.15,52.14,0,110.7,13.28,18.95,15.9
"2009-07-28 01:02:00",1100573,2.724,43.77,3.421,0.102,17.65,107.3528,18.1,19.14,52.87,0,110.7,13.28,18.91,5.8
"2009-07-28 01:02:30",1100574,2.94,42.99,1.805,0.102,17.67,107.3356,18.06,19.13,53.32,0,110.7,13.28,18.87,5.0
"2009-07-28 01:03:00",1100575,2.965,37.63,1.808,0.088,17.49,107.3311,18.04,19.11,53.65,0,110.7,13.28,18.86,359.6
"2009-07-28 01:03:30",1100576,2.651,33.28,1.962,0.292,17.65,107.3311,18.04,19.11,54.05,0,110.7,13.28,18.86,355.3
"2009-07-28 01:04:00",1100577,2.29,29.81,2.549,0.228,17.68,107.3297,18.04,19.09,53.93,0,110.7,13.29,18.86,351.8
"2009-07-28 01:04:30",1100578,2.746,22.71,2.969,0.386,17.72,107.3088,17.99,19.07,54.01,0,110.7,13.29,18.80,344.7
"2009-07-28 01:05:00",1100579,2.594,15.56,2.62,0.402,17.85,107.2976,17.96,19.06,54.12,0,110.7,13.29,18.77,337.6
"2009-07-28 01:05:30",1100580,2.49,12.53,3.331,0.209,17.86,107.2973,17.96,19.05,54.26,0,110.7,13.29,18.77,334.5
"2009-07-28 01:06:00",1100581,3.082,5.492,3.352,0.514,17.78,107.2973,17.96,19.02,54.74,0,110.7,13.29,18.77,327.5
"2009-07-28 01:06:30",1100582,2.798,0.423,2.805,0.448,17.86,107.2953,17.95,19.03,54.67,0,110.7,13.29,18.77,322.4
"2009-07-28 01:07:00",1100583,2.608,9.82,4.567,0.287,17.85,107.2705,17.89,19,54.72,0,110.7,13.28,18.70,331.8
"2009-07-28 01:07:30",1100584,2.945,12.45,2.975,0.222,17.9,107.2635,17.87,18.99,55.02,0,110.7,13.28,18.69,334.5
"2009-07-28 01:08:00",1100585,3.388,8.53,2.559,0.427,17.88,107.2635,17.87,18.96,54.73,0,110.7,13.28,18.69,330.5
"2009-07-28 01:08:30",1100586,4.03,14.61,2.475,0.38,17.84,107.2615,17.87,18.95,54.96,0,110.6,13.28,18.68,336.6
"2009-07-28 01:09:00",1100587,4.677,17.28,1.568,0.341,17.84,107.2432,17.82,18.94,55.38,0,110.7,13.28,18.63,339.3
"2009-07-28 01:09:30",1100588,5.113,17.79,1.294,0.262,17.86,107.23,17.78,18.9,55.22,0,110.7,13.28,18.60,339.8
"2009-07-28 01:10:00",1100589,5.962,19.36,0.914,0.263,17.88,107.2297,17.78,18.9,55.57,0,110.6,13.28,18.60,341.4
"2009-07-28 01:10:30",1100590,5.915,18.81,1.598,0.353,17.83,107.2292,17.78,18.88,55.84,0,110.6,13.28,18.60,340.8
"2009-07-28 01:11:00",1100591,5.915,20.02,1.275,0.235,18.42,107.2154,17.75,18.87,57.31,0,110.6,13.28,18.56,342.0
"2009-07-28 01:11:30",1100592,6.272,21.1,1.163,0.159,17.89,107.203,17.72,18.84,57.53,0,110.6,13.28,18.53,343.1
"2009-07-28 01:12:00",1100593,6.315,20.28,1.212,0.219,17.93,107.1962,17.7,18.83,57.45,0,110.6,13.28,18.51,342.3
"2009-07-28 01:12:30",1100594,6.034,19.81,1.093,0.148,17.99,107.1959,17.7,18.81,56.45,0,110.6,13.28,18.51,341.8
"2009-07-28 01:13:00",1100595,6.094,19.22,0.878,0.221,18,107.1954,17.7,18.79,55.55,0,110.6,13.28,18.51,341.2
"2009-07-28 01:13:30",1100596,6.031,18.7,0.754,0.305,18.03,107.1771,17.65,18.77,55.15,0,110.6,13.28,18.46,340.7
"2009-07-28 01:14:00",1100597,6.21,18.63,0.977,0.269,17.96,107.1681,17.63,18.74,54.97,0,110.6,13.28,18.44,340.6
"2009-07-28 01:14:30",1100598,6.246,18.67,0.993,0.287,17.96,107.1634,17.61,18.72,55.21,0,110.6,13.28,18.43,340.7
"2009-07-28 01:15:00",1100599,6.01,19.03,0.77,0.296,18.05,107.164,17.62,18.73,54.74,0,110.6,13.29,18.43,341.0
"2009-07-28 01:15:30",1100600,5.475,17.46,1.77,0.456,18.16,107.1655,17.62,18.7,53.61,0,110.6,13.29,18.43,339.5
"2009-07-28 01:16:00",1100601,5.035,15.4,1.762,0.319,18.25,107.1585,17.6,18.68,52.95,0,110.6,13.29,18.42,337.4
"2009-07-28 01:16:30",1100602,4.524,13.66,1.996,0.369,18.31,107.1466,17.57,18.66,52.06,0,110.6,13.29,18.38,335.7
"2009-07-28 01:17:00",1100603,6.225,17.51,1.696,0.705,18.46,107.1389,17.55,18.64,51.75,0,110.6,13.29,18.36,339.5
"2009-07-28 01:17:30",1100604,6.068,17.47,1.35,0.353,18.54,107.1459,17.57,18.63,51.61,0,110.6,13.29,18.38,339.5
"2009-07-28 01:18:00",1100605,6.712,9.37,7.767,0.882,16.37,107.148,17.57,18.62,51.15,0,110.6,13.29,18.39,331.4
"2009-07-28 01:18:30",1100606,6.527,9.97,4.883,1.149,19.3,107.1488,17.58,18.62,51.35,0,110.6,13.29,18.39,332.0
"2009-07-28 01:19:00",1100607,7.522,6.22,3.897,1.223,19.04,107.136,17.54,18.6,52.5,0,110.6,13.29,18.36,328.2
"2009-07-28 01:19:30",1100608,7.283,3.897,6.739,0.989,19.11,107.1228,17.51,18.57,52.75,0,110.6,13.29,18.32,325.9
"2009-07-28 01:20:00",1100609,7.121,14.1,3.624,1.353,19.33,107.1214,17.51,18.55,52.01,0,110.6,13.29,18.32,336.1
"2009-07-28 01:20:30",1100610,6.011,7.998,5.547,0.955,13.76,107.1241,17.51,18.55,51.77,0,110.6,13.29,18.33,330.0
"2009-07-28 01:21:00",1100611,6.107,6.517,7.244,0.849,18.66,107.1238,17.51,18.55,53.47,0,110.6,13.29,18.33,328.5
"2009-07-28 01:21:30",1100612,6.392,7.745,2.526,1.674,16.49,107.1256,17.52,18.53,54.4,0,110.6,13.29,18.33,329.7
"2009-07-28 01:22:00",1100613,7.886,352.5,3.951,1.407,12.09,107.1236,17.51,18.53,53.99,0,110.6,13.29,18.33,314.5
"2009-07-28 01:22:30",1100614,4.357,5.43,7.49,1.439,18.69,107.1201,17.5,18.51,55.71,0,110.6,13.29,18.32,327.4
"2009-07-28 01:23:00",1100615,6.088,19.99,4.927,1.003,18.73,107.1148,17.49,18.51,56.82,0,110.6,13.29,18.30,342.0
"2009-07-28 01:23:30",1100616,5.86,13.43,6.057,1.533,18.74,107.107,17.47,18.5,57.1,0,110.6,13.29,18.28,335.4
"2009-07-28 01:24:00",1100617,6.005,15.69,4.009,1.772,18.85,107.0967,17.44,18.49,56.35,0,110.6,13.29,18.26,337.7
"2009-07-28 01:24:30",1100618,8.57,20.48,2.42,0.447,18.9,107.097,17.44,18.47,54.67,0,110.6,13.29,18.26,342.5
"2009-07-28 01:25:00",1100619,8.68,20,1.286,0.471,18.88,107.0967,17.44,18.47,52.12,0,110.6,13.29,18.26,342.0
"2009-07-28 01:25:30",1100620,8.27,20.11,2.25,0.38,16.6,107.097,17.44,18.44,53.63,0,110.6,13.29,18.26,342.1
"2009-07-28 01:26:00",1100621,8.39,19.76,1.349,0.354,-10.73,107.0967,17.44,18.46,54.25,0,110.6,13.29,18.26,341.8
"2009-07-28 01:26:30",1100622,9.27,27.3,8.18,1.572,14.09,107.0843,17.41,18.51,53.12,0,110.6,13.25,18.22,349.3
"2009-07-28 01:27:00",1100623,9.44,28.86,6.851,1.417,23,107.0638,17.36,18.69,50.7,0,110.6,13.25,18.17,350.9
"2009-07-28 01:27:30",1100624,10.33,35.19,4.6,0.826,24.09,107.0632,17.36,18.75,50.47,0,110.6,13.25,18.17,357.2
"2009-07-28 01:28:00",1100625,9.45,33.71,6.878,1.423,22.07,107.0404,17.3,18.64,50,0,110.6,13.25,18.11,355.7
"2009-07-28 01:28:30",1100626,8.75,32.71,6.047,1.316,20.18,107.026,17.26,18.58,51.26,0,110.6,13.25,18.07,354.7
"2009-07-28 01:29:00",1100627,6.549,24.71,2.59,0.613,17.3,106.9962,17.19,18.31,51.93,0,110.6,13.29,18.00,346.7
"2009-07-28 01:29:30",1100628,6.844,21.47,2.819,0.646,17.33,106.9717,17.12,18.28,52.67,0,110.6,13.29,17.93,343.5
"2009-07-28 01:30:00",1100629,7.753,22.97,8.79,1.383,19.12,106.9613,17.1,18.32,54.67,0,110.6,13.25,17.91,345.0
"2009-07-28 01:30:30",1100630,9.5,24.07,7.643,1.257,17.63,106.9342,17.03,18.34,55.07,0,110.6,13.26,17.84,346.1
"2009-07-28 01:31:00",1100631,10.47,23.24,6.636,1.564,19.74,106.9199,16.99,18.32,54.34,0,110.6,13.26,17.80,345.2
"2009-07-28 01:31:30",1100632,9.88,17.31,4.521,1.574,17.9,106.8972,16.93,18.11,54.67,0,110.6,13.3,17.74,339.3
"2009-07-28 01:32:00",1100633,10.02,17.72,7.285,1.815,18.04,106.8828,16.89,18.08,56.75,0,110.6,13.3,17.71,339.7
"2009-07-28 01:32:30",1100634,7.368,10.33,6.768,2.042,18.47,106.8785,16.88,18.05,58.45,0,110.6,13.26,17.69,332.3
"2009-07-28 01:33:00",1100635,8.93,21.76,5.469,2.405,20.7,106.8528,16.82,18.13,59.49,0,110.6,13.26,17.63,343.8
"2009-07-28 01:33:30",1100636,5.468,15.78,8.4,1.653,17.98,106.8349,16.77,17.97,60.71,0,110.6,13.3,17.58,337.8
"2009-07-28 01:34:00",1100637,5.505,13.43,8.46,2.124,18.03,106.8205,16.74,17.91,60.96,0,110.6,13.3,17.55,335.4
"2009-07-28 01:34:30",1100638,7.611,18.2,2.999,1.185,19.6,106.7969,16.67,17.85,60.62,0,110.6,13.3,17.48,340.2
"2009-07-28 01:35:00",1100639,7.048,17.25,2.932,1.156,18.45,106.7943,16.67,17.81,60.05,0,110.6,13.3,17.48,339.2
"2009-07-28 01:35:30",1100640,7.02,15.16,3.814,0.743,16.54,106.7675,16.6,17.75,57.66,0,110.6,13.31,17.41,337.2
"2009-07-28 01:36:00",1100641,5.74,16.19,5.657,1.782,15.79,106.7613,16.58,17.7,57.97,0,110.6,13.31,17.39,338.2
"2009-07-28 01:36:30",1100642,6.563,16,5.921,1.076,17.81,106.7472,16.55,17.69,61.4,0,110.6,13.31,17.36,338.0
"2009-07-28 01:37:00",1100643,7.816,18.09,3.085,0.739,18.53,106.7275,16.5,17.66,62.7,0,110.6,13.31,17.31,340.1
"2009-07-28 01:37:30",1100644,7.885,15.3,3.957,1.221,18.43,106.7244,16.49,17.61,62.12,0,110.6,13.31,17.30,337.3
"2009-07-28 01:38:00",1100645,5.619,12.9,5.663,1.053,18.74,106.6993,16.42,17.58,63.15,0,110.6,13.32,17.23,334.9
"2009-07-28 01:38:30",1100646,7.273,9.19,13.83,1.836,20.84,106.6937,16.41,17.7,63.9,0,110.6,13.28,17.22,331.2
"2009-07-28 01:39:00",1100647,7.537,4.972,7.723,2.276,16.62,106.6785,16.37,17.76,64.21,0,110.6,13.28,17.18,327.0
"2009-07-28 01:39:30",1100648,5.915,16.12,6.06,1.193,9.88,106.6599,16.32,17.66,64.71,0,110.6,13.28,17.13,338.1
"2009-07-28 01:40:00",1100649,8.8,24.68,6.832,1.06,10.72,106.65,16.3,17.49,64.08,0,110.6,13.28,17.11,346.7
"2009-07-28 01:40:30",1100650,7.023,7.782,13.58,1.438,16.9,106.6272,16.24,17.46,62.44,0,110.6,13.28,17.05,329.8
"2009-07-28 01:41:00",1100651,7.672,24.78,8.13,1.707,16.38,106.6247,16.23,17.51,62.54,0,110.6,13.27,17.04,346.8
"2009-07-28 01:41:30",1100652,4.591,6.377,11.28,1.122,15.92,106.6036,16.18,17.34,62.36,0,110.6,13.3,16.99,328.4
"2009-07-28 01:42:00",1100653,4.421,6.732,9.07,1.155,17.87,106.5923,16.15,17.31,63.15,0,110.5,13.3,16.96,328.7
"2009-07-28 01:42:30",1100654,6.256,7.792,9.24,1.877,19.79,106.5788,16.12,17.44,63.71,0,110.5,13.27,16.92,329.8
"2009-07-28 01:43:00",1100655,5.88,359.2,10.2,1.683,19.69,106.5585,16.06,17.4,63.62,0,110.5,13.27,16.87,321.2
"2009-07-28 01:43:30",1100656,7.655,357.2,6.426,1.59,21.29,106.5515,16.05,17.5,63.43,0,110.6,13.27,16.85,319.2
"2009-07-28 01:44:00",1100657,7.677,353.9,10.06,1.273,18.72,106.5253,15.98,17.41,63.59,0,110.5,13.27,16.79,315.9
"2009-07-28 01:44:30",1100658,4.988,352,9.8,0.985,17.79,106.5191,15.96,17.14,62.81,0,110.5,13.27,16.77,314.0
"2009-07-28 01:45:00",1100659,4.657,4.313,3.022,0.163,17.34,106.4939,15.9,17.09,61.41,0,110.5,13.3,16.71,326.3
"2009-07-28 01:45:30",1100660,5.116,11.8,9.67,0.986,19.46,106.4932,15.9,17.16,60.24,0,110.5,13.27,16.70,333.8
"2009-07-28 01:46:00",1100661,5.201,28.26,9.73,1.251,22.63,106.4668,15.83,17.28,58.42,0,110.5,13.27,16.64,350.3
"2009-07-28 01:46:30",1100662,3.504,337.4,20.25,1.305,20.89,106.4694,15.84,17.14,54.5,0,110.5,13.27,16.64,299.4
"2009-07-28 01:47:00",1100663,3.754,310.8,8.14,1.32,21.54,106.4733,15.85,17.2,55.7,0,110.5,13.27,16.65,272.8